Regional Weather Roundup
Issued by NWS

Home | Current Version | Previous Version | Graphics & Text | Print | Product List | Glossary On
Versions: 1 2 3 4 5 6 7 8 9 10 11 12 13 14 15 16 17 18 19 20 21 22 23 24 25 26 27 28 29 30 31 32 33 34 35 36 37 38 39 40 41 42 43 44 45 46 47 48 49 50
000
ASUS43 KBIS 270620
RWRND

NORTH DAKOTA REGIONAL WEATHER ROUNDUP
NATIONAL WEATHER SERVICE BISMARCK ND
1200 AM CST THU NOV 27 2014

NOTE: "FAIR" INDICATES FEW OR NO CLOUDS BELOW 12,000 FEET WITH NO
SIGNIFICANT WEATHER AND/OR OBSTRUCTIONS TO VISIBILITY.


NDZ001>003-009>011-017-270700-
NORTHWEST NORTH DAKOTA

CITY           SKY/WX    TMP DP  RH WIND       PRES   REMARKS
WILLISTON      PTCLDY     9   5  84 S5        30.34F WCI   1
6HR MIN TEMP:   7; 6HR MAX TEMP:  11;

MINOT          MOCLDY   -14 -20  74 S3        30.43S
MINOT AFB      MOCLDY   -25 -30  78 S5        30.44S WCI -39
$$

NDZ018>021-031>035-040>046-270700-
SOUTHWEST NORTH DAKOTA

CITY           SKY/WX    TMP DP  RH WIND       PRES   REMARKS
BISMARCK       PTCLDY   -11 -16  78 E7        30.47S WCI -26
6HR MIN TEMP: -11; 6HR MAX TEMP:   1;

DICKINSON      CLOUDY    13  10  88 S14       30.29F WCI  -2
GARRISON         N/A     -1  -4  87 E9        30.41F WCI -16
6HR MIN TEMP: -11; 6HR MAX TEMP:  -1;

HETTINGER ARPT CLOUDY    10   7  87 SE9       30.32F WCI  -3
$$

NDZ004>008-012>016-024-026-027-054-270700-
NORTHEAST NORTH DAKOTA

CITY           SKY/WX    TMP DP  RH WIND       PRES   REMARKS
GRAND FORKS    FAIR     -14 -19  79 W5        30.57R WCI -26
GRND FRKS AFB  PTCLDY   -13 -18  77 W3        30.56R
DEVILS LAKE    PTCLDY   -11 -24  53 CALM      30.45S
$$

NDZ022-023-025-028>030-036>039-047>053-270700-
SOUTHEAST NORTH DAKOTA

CITY           SKY/WX    TMP DP  RH WIND       PRES   REMARKS
FARGO          PTCLDY   -10 -17  71 W7        30.57R WCI -25
6HR MIN TEMP: -10; 6HR MAX TEMP:  -1;

JAMESTOWN      MOCLDY   -24 -28  81 NW3       30.48S
$$




USA.gov is the U.S. government's official web portal to all federal, state and local government web resources and services.